Check out our new BloomSky Weather System.

Active alerts


No alerts


Thunder radar  blitzortung!


Rain radar more information rain snow radar


Visit our other weather sites:

Template documentation
and downloads

And another site



Weather Underground History page Text

Daily Summary for January 4, 2017 Units:  English    Metric   Both
« Previous Day
Next Day »
Daily Weekly Monthly Yearly Custom
  High: Low: Average:
Temperature: 52.0 °F 40.6 °F 46.3 °F
Dew Point: 43.0 °F 35.6 °F 40.1 °F
Humidity: 93 % 68 % 79 %
Wind Speed: 10.0 mph 0.0 mph 2.4 mph
Wind Gust: 20.0 mph - -
Wind:- - WNW
Pressure: 30.19 in 29.96 in -
Precipitation: 0.00 in    
Historical Graphs
 
 
Tabular Data for January 4, 2017
Time Temperature Dew Point Pressure Wind Wind Speed Wind Gust Humidity Rainfall Rate (Hourly)
00:00 46.8 °F 39.9 °F 30.11 in NNW 6.0 mph 15.0 mph 77 % 0.00 in
00:05 46.6 °F 40.1 °F 30.11 in NW 5.0 mph 14.0 mph 78 % 0.00 in
00:10 46.4 °F 39.9 °F 30.11 in NW 5.0 mph 16.0 mph 78 % 0.00 in
00:15 46.2 °F 39.7 °F 30.11 in NW 5.0 mph 16.0 mph 78 % 0.00 in
00:20 46.0 °F 39.9 °F 30.11 in NW 4.0 mph 16.0 mph 79 % 0.00 in
00:25 46.0 °F 39.9 °F 30.10 in NNW 5.0 mph 13.0 mph 79 % 0.00 in
00:30 46.0 °F 39.9 °F 30.11 in NW 6.0 mph 13.0 mph 79 % 0.00 in
00:35 45.9 °F 39.7 °F 30.11 in NW 4.0 mph 12.0 mph 79 % 0.00 in
00:40 45.9 °F 40.1 °F 30.10 in NW 7.0 mph 12.0 mph 80 % 0.00 in
00:45 45.7 °F 39.9 °F 30.10 in NW 3.0 mph 9.0 mph 80 % 0.00 in
00:50 45.7 °F 39.9 °F 30.11 in NW 7.0 mph 9.0 mph 80 % 0.00 in
00:55 45.7 °F 39.9 °F 30.11 in NW 3.0 mph 9.0 mph 80 % 0.00 in
01:00 45.5 °F 40.1 °F 30.11 in NW 5.0 mph 9.0 mph 81 % 0.00 in
01:05 45.5 °F 40.1 °F 30.12 in NW 2.0 mph 11.0 mph 81 % 0.00 in
01:10 45.5 °F 40.1 °F 30.11 in NNW 2.0 mph 11.0 mph 81 % 0.00 in
01:15 45.3 °F 39.9 °F 30.11 in NNW 3.0 mph 11.0 mph 81 % 0.00 in
01:20 45.3 °F 39.9 °F 30.11 in NW 3.0 mph 10.0 mph 81 % 0.00 in
01:25 45.3 °F 40.1 °F 30.10 in NW 2.0 mph 8.0 mph 82 % 0.00 in
01:30 45.1 °F 39.9 °F 30.11 in NW 4.0 mph 8.0 mph 82 % 0.00 in
01:35 45.1 °F 39.9 °F 30.10 in NNW 2.0 mph 6.0 mph 82 % 0.00 in
01:40 45.1 °F 39.9 °F 30.10 in NNW 2.0 mph 6.0 mph 82 % 0.00 in
01:45 45.1 °F 40.3 °F 30.10 in NW 1.0 mph 6.0 mph 83 % 0.00 in
01:50 45.1 °F 40.3 °F 30.11 in NW 1.0 mph 5.0 mph 83 % 0.00 in
01:55 45.1 °F 40.3 °F 30.10 in West 2.0 mph 5.0 mph 83 % 0.00 in
02:00 45.3 °F 40.8 °F 30.10 in NNW 4.0 mph 6.0 mph 84 % 0.00 in
02:05 45.5 °F 40.6 °F 30.11 in WNW 4.0 mph 10.0 mph 83 % 0.00 in
02:10 45.7 °F 40.5 °F 30.11 in WNW 5.0 mph 10.0 mph 82 % 0.00 in
02:15 45.9 °F 40.3 °F 30.11 in NNW 7.0 mph 13.0 mph 81 % 0.00 in
02:20 45.9 °F 40.3 °F 30.10 in NNW 7.0 mph 13.0 mph 81 % 0.00 in
02:25 45.9 °F 40.3 °F 30.10 in North 3.0 mph 15.0 mph 81 % 0.00 in
02:31 45.7 °F 39.9 °F 30.11 in NW 6.0 mph 15.0 mph 80 % 0.00 in
02:36 45.7 °F 39.6 °F 30.11 in WSW 9.0 mph 15.0 mph 79 % 0.00 in
02:41 45.3 °F 38.8 °F 30.11 in NW 3.0 mph 20.0 mph 78 % 0.00 in
02:46 45.1 °F 39.0 °F 30.11 in WNW 4.0 mph 20.0 mph 79 % 0.00 in
02:51 45.0 °F 38.8 °F 30.11 in NW 7.0 mph 20.0 mph 79 % 0.00 in
02:56 45.0 °F 38.8 °F 30.11 in NW 10.0 mph 15.0 mph 79 % 0.00 in
03:01 44.8 °F 38.7 °F 30.11 in NW 3.0 mph 15.0 mph 79 % 0.00 in
03:06 44.4 °F 38.7 °F 30.10 in NW 4.0 mph 15.0 mph 80 % 0.00 in
03:11 44.4 °F 38.7 °F 30.09 in NNW 4.0 mph 12.0 mph 80 % 0.00 in
03:16 44.2 °F 38.5 °F 30.09 in NNW 5.0 mph 11.0 mph 80 % 0.00 in
03:21 44.2 °F 38.5 °F 30.09 in NW 2.0 mph 11.0 mph 80 % 0.00 in
03:26 44.1 °F 38.7 °F 30.09 in NW 2.0 mph 10.0 mph 81 % 0.00 in
03:31 44.1 °F 38.7 °F 30.10 in NNW 4.0 mph 11.0 mph 81 % 0.00 in
03:36 44.1 °F 38.7 °F 30.10 in NW 6.0 mph 11.0 mph 81 % 0.00 in
03:41 44.1 °F 38.7 °F 30.10 in NW 4.0 mph 11.0 mph 81 % 0.00 in
03:46 44.2 °F 39.0 °F 30.10 in NW 5.0 mph 8.0 mph 82 % 0.00 in
03:51 44.2 °F 38.8 °F 30.10 in NNW 4.0 mph 8.0 mph 81 % 0.00 in
03:56 44.4 °F 39.0 °F 30.10 in NW 1.0 mph 10.0 mph 81 % 0.00 in
04:01 44.4 °F 39.0 °F 30.10 in WNW 2.0 mph 10.0 mph 81 % 0.00 in
04:06 44.4 °F 39.0 °F 30.10 in NW 4.0 mph 10.0 mph 81 % 0.00 in
04:11 44.2 °F 38.8 °F 30.10 in NW 4.0 mph 10.0 mph 81 % 0.00 in
04:16 44.2 °F 38.8 °F 30.09 in NNE 4.0 mph 10.0 mph 81 % 0.00 in
04:21 44.1 °F 38.7 °F 30.09 in NNW 1.0 mph 10.0 mph 81 % 0.00 in
04:26 43.9 °F 38.5 °F 30.09 in NW 2.0 mph 9.0 mph 81 % 0.00 in
04:31 43.9 °F 38.5 °F 30.10 in NNW 4.0 mph 6.0 mph 81 % 0.00 in
04:36 43.9 °F 38.5 °F 30.10 in NNW 4.0 mph 6.0 mph 81 % 0.00 in
04:41 43.9 °F 38.5 °F 30.11 in NW 7.0 mph 8.0 mph 81 % 0.00 in
04:46 43.9 °F 38.5 °F 30.11 in NNW 2.0 mph 8.0 mph 81 % 0.00 in
04:51 43.9 °F 38.1 °F 30.11 in NW 7.0 mph 9.0 mph 80 % 0.00 in
04:56 43.9 °F 38.1 °F 30.11 in NW 2.0 mph 10.0 mph 80 % 0.00 in
05:01 43.7 °F 37.9 °F 30.11 in NNW 7.0 mph 10.0 mph 80 % 0.00 in
05:06 43.5 °F 37.8 °F 30.10 in NW 5.0 mph 10.0 mph 80 % 0.00 in
05:11 43.3 °F 37.6 °F 30.11 in NNW 4.0 mph 10.0 mph 80 % 0.00 in
05:16 43.3 °F 37.6 °F 30.11 in NNW 5.0 mph 10.0 mph 80 % 0.00 in
05:21 43.2 °F 37.4 °F 30.11 in NW 4.0 mph 9.0 mph 80 % 0.00 in
05:26 43.2 °F 37.8 °F 30.11 in North 4.0 mph 9.0 mph 81 % 0.00 in
05:31 43.0 °F 37.6 °F 30.11 in NNW 1.0 mph 7.0 mph 81 % 0.00 in
05:36 42.8 °F 37.8 °F 30.11 in Calm   7.0 mph 82 % 0.00 in
05:41 42.6 °F 37.6 °F 30.12 in Calm   5.0 mph 82 % 0.00 in
05:46 42.4 °F 37.4 °F 30.12 in NNW 3.0 mph 5.0 mph 82 % 0.00 in
05:52 42.4 °F 37.4 °F 30.12 in NNW 5.0 mph 8.0 mph 82 % 0.00 in
05:57 42.3 °F 37.2 °F 30.12 in NW 4.0 mph 9.0 mph 82 % 0.00 in
06:02 42.3 °F 36.9 °F 30.13 in NW 4.0 mph 9.0 mph 81 % 0.00 in
06:07 42.1 °F 36.7 °F 30.13 in NW 3.0 mph 9.0 mph 81 % 0.00 in
06:12 41.7 °F 36.3 °F 30.12 in NNW 3.0 mph 9.0 mph 81 % 0.00 in
06:17 41.7 °F 36.3 °F 30.13 in North 7.0 mph 10.0 mph 81 % 0.00 in
06:22 41.5 °F 36.1 °F 30.13 in NW 1.0 mph 10.0 mph 81 % 0.00 in
06:27 41.4 °F 36.0 °F 30.13 in NNW 4.0 mph 10.0 mph 81 % 0.00 in
06:32 41.4 °F 36.0 °F 30.13 in NW 4.0 mph 8.0 mph 81 % 0.00 in
06:37 41.2 °F 36.1 °F 30.13 in NNW 4.0 mph 9.0 mph 82 % 0.00 in
06:42 41.2 °F 36.1 °F 30.14 in WNW 3.0 mph 9.0 mph 82 % 0.00 in
06:47 40.8 °F 35.8 °F 30.13 in NNW 3.0 mph 9.0 mph 82 % 0.00 in
06:52 40.8 °F 35.8 °F 30.13 in NNW 3.0 mph 9.0 mph 82 % 0.00 in
06:57 40.6 °F 35.6 °F 30.13 in NNW 1.0 mph 9.0 mph 82 % 0.00 in
07:02 40.6 °F 36.0 °F 30.14 in WNW 3.0 mph 9.0 mph 83 % 0.00 in
07:07 40.6 °F 36.0 °F 30.14 in NNW 6.0 mph 6.0 mph 83 % 0.00 in
07:12 40.6 °F 36.0 °F 30.14 in North 2.0 mph 9.0 mph 83 % 0.00 in
07:17 40.6 °F 36.0 °F 30.14 in NW 2.0 mph 9.0 mph 83 % 0.00 in
07:22 40.6 °F 36.1 °F 30.14 in WNW 1.0 mph 9.0 mph 84 % 0.00 in
07:27 40.8 °F 36.1 °F 30.14 in Calm   9.0 mph 83 % 0.00 in
07:32 40.8 °F 36.1 °F 30.14 in North 3.0 mph 6.0 mph 83 % 0.00 in
07:37 40.8 °F 36.1 °F 30.14 in NW 2.0 mph 7.0 mph 83 % 0.00 in
07:42 40.8 °F 36.1 °F 30.14 in WNW 1.0 mph 7.0 mph 83 % 0.00 in
07:47 41.0 °F 36.5 °F 30.14 in NW 3.0 mph 7.0 mph 84 % 0.00 in
07:52 41.2 °F 36.5 °F 30.15 in NW 3.0 mph 7.0 mph 83 % 0.00 in
07:57 41.2 °F 36.7 °F 30.14 in NNW 3.0 mph 5.0 mph 84 % 0.00 in
08:02 41.4 °F 36.9 °F 30.14 in NNW 4.0 mph 5.0 mph 84 % 0.00 in
08:07 41.5 °F 36.7 °F 30.15 in NW 3.0 mph 7.0 mph 83 % 0.00 in
08:12 41.7 °F 36.9 °F 30.15 in NW 3.0 mph 7.0 mph 83 % 0.00 in
08:17 41.9 °F 37.0 °F 30.15 in NW 3.0 mph 7.0 mph 83 % 0.00 in
08:22 42.1 °F 37.2 °F 30.15 in NW 3.0 mph 7.0 mph 83 % 0.00 in
08:27 42.3 °F 37.4 °F 30.14 in NW 6.0 mph 7.0 mph 83 % 0.00 in
08:32 42.3 °F 37.4 °F 30.15 in WNW 3.0 mph 8.0 mph 83 % 0.00 in
08:37 42.4 °F 37.4 °F 30.16 in NNW 6.0 mph 8.0 mph 82 % 0.00 in
08:42 42.4 °F 37.4 °F 30.16 in NNW 1.0 mph 8.0 mph 82 % 0.00 in
08:47 42.6 °F 37.6 °F 30.16 in NW 4.0 mph 7.0 mph 82 % 0.00 in
08:52 42.8 °F 37.8 °F 30.16 in NNW 3.0 mph 7.0 mph 82 % 0.00 in
08:57 43.0 °F 37.6 °F 30.16 in NW 3.0 mph 7.0 mph 81 % 0.00 in
09:02 43.0 °F 37.6 °F 30.17 in NNW 4.0 mph 8.0 mph 81 % 0.00 in
09:07 43.0 °F 37.6 °F 30.16 in NNW 3.0 mph 8.0 mph 81 % 0.00 in
09:08 43.0 °F 37.9 °F 30.16 in North 2.0 mph 8.0 mph 82 % 0.00 in
09:13 43.3 °F 38.3 °F 30.17 in NW 1.0 mph 8.0 mph 82 % 0.00 in
09:18 43.3 °F 37.9 °F 30.17 in West 4.0 mph 7.0 mph 81 % 0.00 in
09:23 43.3 °F 37.9 °F 30.17 in NW 3.0 mph 6.0 mph 81 % 0.00 in
09:28 43.5 °F 38.1 °F 30.16 in NW 3.0 mph 7.0 mph 81 % 0.00 in
09:33 43.7 °F 38.3 °F 30.17 in North 2.0 mph 7.0 mph 81 % 0.00 in
09:38 43.9 °F 38.1 °F 30.17 in NW 2.0 mph 7.0 mph 80 % 0.00 in
09:43 44.1 °F 38.3 °F 30.17 in NW 3.0 mph 7.0 mph 80 % 0.00 in
09:48 44.2 °F 38.8 °F 30.17 in NNW 2.0 mph 6.0 mph 81 % 0.00 in
09:53 44.8 °F 39.0 °F 30.18 in NW 4.0 mph 6.0 mph 80 % 0.00 in
09:58 44.8 °F 38.7 °F 30.18 in NNW 2.0 mph 7.0 mph 79 % 0.00 in
10:04 45.0 °F 38.8 °F 30.17 in NW 1.0 mph 7.0 mph 79 % 0.00 in
10:09 45.3 °F 38.8 °F 30.17 in WNW 2.0 mph 7.0 mph 78 % 0.00 in
10:14 45.3 °F 38.5 °F 30.17 in NNW 2.0 mph 7.0 mph 77 % 0.00 in
10:19 45.9 °F 39.0 °F 30.17 in NNW 6.0 mph 9.0 mph 77 % 0.00 in
10:24 45.9 °F 39.0 °F 30.17 in NNW 1.0 mph 9.0 mph 77 % 0.00 in
10:29 46.0 °F 39.2 °F 30.17 in North 4.0 mph 9.0 mph 77 % 0.00 in
10:34 46.6 °F 39.7 °F 30.18 in NW 4.0 mph 9.0 mph 77 % 0.00 in
10:39 46.4 °F 39.2 °F 30.18 in WNW 5.0 mph 7.0 mph 76 % 0.00 in
10:44 46.6 °F 39.7 °F 30.19 in NW 5.0 mph 6.0 mph 77 % 0.00 in
10:49 46.6 °F 39.4 °F 30.19 in WNW 6.0 mph 7.0 mph 76 % 0.00 in
10:54 46.8 °F 39.6 °F 30.18 in WNW 3.0 mph 8.0 mph 76 % 0.00 in
10:59 47.1 °F 39.6 °F 30.18 in NW 6.0 mph 8.0 mph 75 % 0.00 in
11:04 47.7 °F 40.1 °F 30.18 in NNW 4.0 mph 8.0 mph 75 % 0.00 in
11:09 48.4 °F 40.8 °F 30.17 in Calm   8.0 mph 75 % 0.00 in
11:14 49.3 °F 41.0 °F 30.16 in NNW 5.0 mph 8.0 mph 73 % 0.00 in
11:19 49.6 °F 41.0 °F 30.15 in NNW 3.0 mph 9.0 mph 72 % 0.00 in
11:24 49.5 °F 40.5 °F 30.15 in NW 4.0 mph 9.0 mph 71 % 0.00 in
11:29 49.8 °F 41.2 °F 30.15 in ENE 3.0 mph 9.0 mph 72 % 0.00 in
11:34 50.2 °F 41.2 °F 30.15 in NNE 1.0 mph 8.0 mph 71 % 0.00 in
11:39 50.4 °F 41.4 °F 30.14 in ENE 1.0 mph 8.0 mph 71 % 0.00 in
11:44 50.7 °F 41.7 °F 30.14 in ENE 2.0 mph 6.0 mph 71 % 0.00 in
11:49 50.4 °F 41.4 °F 30.14 in ENE 2.0 mph 7.0 mph 71 % 0.00 in
11:54 50.5 °F 41.2 °F 30.14 in NW 3.0 mph 7.0 mph 70 % 0.00 in
11:59 50.7 °F 41.4 °F 30.13 in NW 3.0 mph 9.0 mph 70 % 0.00 in
12:04 51.1 °F 41.7 °F 30.14 in NNW 3.0 mph 9.0 mph 70 % 0.00 in
12:09 51.3 °F 41.9 °F 30.13 in NW 4.0 mph 10.0 mph 70 % 0.00 in
12:14 51.4 °F 41.9 °F 30.12 in North 4.0 mph 10.0 mph 70 % 0.00 in
12:19 51.4 °F 41.9 °F 30.12 in NNW 4.0 mph 10.0 mph 70 % 0.00 in
12:24 52.0 °F 41.7 °F 30.12 in NW 5.0 mph 10.0 mph 68 % 0.00 in
12:29 51.6 °F 41.7 °F 30.11 in NNW 6.0 mph 10.0 mph 69 % 0.00 in
12:34 51.1 °F 41.2 °F 30.11 in NNW 7.0 mph 10.0 mph 69 % 0.00 in
12:39 50.5 °F 41.2 °F 30.10 in NNW 2.0 mph 11.0 mph 70 % 0.00 in
12:44 51.1 °F 42.1 °F 30.09 in West 2.0 mph 11.0 mph 71 % 0.00 in
12:49 51.3 °F 41.9 °F 30.08 in Calm   11.0 mph 70 % 0.00 in
12:54 51.6 °F 42.1 °F 30.08 in Calm   7.0 mph 70 % 0.00 in
12:59 51.6 °F 42.1 °F 30.08 in WNW 2.0 mph 6.0 mph 70 % 0.00 in
13:04 51.4 °F 41.5 °F 30.08 in Calm   6.0 mph 69 % 0.00 in
13:09 51.4 °F 41.9 °F 30.07 in NNW 3.0 mph 5.0 mph 70 % 0.00 in
13:14 51.4 °F 41.9 °F 30.08 in NE 2.0 mph 5.0 mph 70 % 0.00 in
13:19 51.3 °F 42.3 °F 30.07 in NNW 4.0 mph 6.0 mph 71 % 0.00 in
13:24 51.3 °F 42.3 °F 30.07 in SW 1.0 mph 6.0 mph 71 % 0.00 in
13:29 51.3 °F 42.3 °F 30.06 in NW 2.0 mph 6.0 mph 71 % 0.00 in
13:34 51.3 °F 42.3 °F 30.06 in NW 3.0 mph 6.0 mph 71 % 0.00 in
13:39 51.1 °F 42.1 °F 30.06 in NW 3.0 mph 7.0 mph 71 % 0.00 in
13:45 51.1 °F 42.4 °F 30.06 in WNW 2.0 mph 7.0 mph 72 % 0.00 in
13:50 51.1 °F 42.1 °F 30.06 in WNW 1.0 mph 7.0 mph 71 % 0.00 in
13:55 50.9 °F 42.3 °F 30.07 in ENE 3.0 mph 8.0 mph 72 % 0.00 in
14:00 51.3 °F 42.6 °F 30.06 in North 4.0 mph 8.0 mph 72 % 0.00 in
14:05 51.1 °F 42.1 °F 30.06 in NNW 3.0 mph 8.0 mph 71 % 0.00 in
14:10 51.1 °F 42.4 °F 30.06 in NNW 1.0 mph 7.0 mph 72 % 0.00 in
14:15 51.3 °F 42.6 °F 30.06 in NNW 3.0 mph 8.0 mph 72 % 0.00 in
14:20 51.1 °F 42.1 °F 30.06 in NW 2.0 mph 8.0 mph 71 % 0.00 in
14:25 50.7 °F 41.7 °F 30.07 in West 1.0 mph 8.0 mph 71 % 0.00 in
14:30 50.9 °F 41.9 °F 30.06 in NW 3.0 mph 5.0 mph 71 % 0.00 in
14:35 51.1 °F 42.1 °F 30.06 in NW 4.0 mph 5.0 mph 71 % 0.00 in
14:40 51.1 °F 42.1 °F 30.06 in NW 2.0 mph 7.0 mph 71 % 0.00 in
14:45 51.3 °F 42.3 °F 30.06 in NW 2.0 mph 7.0 mph 71 % 0.00 in
14:50 51.4 °F 42.4 °F 30.05 in North 5.0 mph 7.0 mph 71 % 0.00 in
14:55 51.6 °F 42.1 °F 30.05 in West 1.0 mph 5.0 mph 70 % 0.00 in
15:00 51.4 °F 42.4 °F 30.05 in NNW 5.0 mph 7.0 mph 71 % 0.00 in
15:05 51.4 °F 41.9 °F 30.05 in NW 1.0 mph 7.0 mph 70 % 0.00 in
15:10 51.3 °F 41.9 °F 30.05 in NNW 2.0 mph 7.0 mph 70 % 0.00 in
15:15 51.3 °F 42.3 °F 30.04 in NNW 2.0 mph 6.0 mph 71 % 0.00 in
15:20 51.4 °F 42.4 °F 30.04 in NNE 2.0 mph 6.0 mph 71 % 0.00 in
15:25 51.3 °F 42.3 °F 30.05 in NW 4.0 mph 6.0 mph 71 % 0.00 in
15:30 51.3 °F 42.3 °F 30.06 in North 4.0 mph 6.0 mph 71 % 0.00 in
15:35 51.3 °F 42.6 °F 30.06 in NW 2.0 mph 6.0 mph 72 % 0.00 in
15:40 51.4 °F 42.8 °F 30.06 in NW 3.0 mph 6.0 mph 72 % 0.00 in
15:45 51.4 °F 42.8 °F 30.06 in NNW 3.0 mph 6.0 mph 72 % 0.00 in
15:50 51.4 °F 42.8 °F 30.05 in Calm   5.0 mph 72 % 0.00 in
15:55 51.4 °F 42.8 °F 30.05 in Calm   5.0 mph 72 % 0.00 in
16:00 51.4 °F 42.4 °F 30.05 in NW 1.0 mph 3.0 mph 71 % 0.00 in
16:05 51.4 °F 42.8 °F 30.05 in NW 2.0 mph 2.0 mph 72 % 0.00 in
16:10 51.4 °F 42.8 °F 30.05 in Calm   3.0 mph 72 % 0.00 in
16:15 51.6 °F 43.0 °F 30.05 in Calm   3.0 mph 72 % 0.00 in
16:20 51.6 °F 43.0 °F 30.04 in NE 2.0 mph 3.0 mph 72 % 0.00 in
16:25 51.6 °F 42.4 °F 30.05 in Calm   4.0 mph 71 % 0.00 in
16:30 51.6 °F 43.0 °F 30.05 in North 1.0 mph 4.0 mph 72 % 0.00 in
16:35 51.6 °F 42.4 °F 30.06 in Calm   4.0 mph 71 % 0.00 in
16:40 51.6 °F 43.0 °F 30.04 in ENE 2.0 mph 3.0 mph 72 % 0.00 in
16:46 51.6 °F 42.4 °F 30.05 in Calm   3.0 mph 71 % 0.00 in
16:52 51.4 °F 42.8 °F 30.04 in NNW 1.0 mph 3.0 mph 72 % 0.00 in
17:00 51.3 °F 42.6 °F 30.03 in Calm   3.0 mph 72 % 0.00 in
17:10 50.7 °F 41.7 °F 30.03 in NNW 2.0 mph 3.0 mph 71 % 0.00 in
17:15 50.5 °F 41.9 °F 30.03 in NNW 3.0 mph 3.0 mph 72 % 0.00 in
17:20 50.4 °F 41.7 °F 30.02 in NW 1.0 mph 3.0 mph 72 % 0.00 in
17:25 50.2 °F 41.5 °F 30.02 in NW 1.0 mph 3.0 mph 72 % 0.00 in
17:35 49.8 °F 41.5 °F 30.02 in NW 3.0 mph 5.0 mph 73 % 0.00 in
17:40 49.8 °F 41.5 °F 30.02 in NW 2.0 mph 5.0 mph 73 % 0.00 in
17:45 49.6 °F 41.7 °F 30.02 in North 2.0 mph 4.0 mph 74 % 0.00 in
17:50 49.6 °F 41.7 °F 30.02 in Calm   4.0 mph 74 % 0.00 in
17:55 49.6 °F 41.7 °F 30.01 in Calm   3.0 mph 74 % 0.00 in
18:00 49.5 °F 41.9 °F 30.02 in NNW 1.0 mph 3.0 mph 75 % 0.00 in
18:05 49.5 °F 41.9 °F 30.02 in WNW 1.0 mph 3.0 mph 75 % 0.00 in
18:10 49.5 °F 41.9 °F 30.02 in Calm   3.0 mph 75 % 0.00 in
18:15 49.5 °F 41.9 °F 30.01 in NNW 1.0 mph 3.0 mph 75 % 0.00 in
18:20 49.5 °F 41.9 °F 30.01 in Calm   2.0 mph 75 % 0.00 in
18:25 49.3 °F 41.7 °F 30.02 in NW 2.0 mph 2.0 mph 75 % 0.00 in
18:30 49.1 °F 41.9 °F 30.02 in NNW 2.0 mph 3.0 mph 76 % 0.00 in
18:35 48.9 °F 41.7 °F 30.02 in NNW 1.0 mph 3.0 mph 76 % 0.00 in
18:40 48.7 °F 41.5 °F 30.02 in NW 2.0 mph 4.0 mph 76 % 0.00 in
18:45 48.7 °F 41.5 °F 30.02 in NNW 2.0 mph 4.0 mph 76 % 0.00 in
18:50 48.6 °F 41.7 °F 30.03 in NNW 1.0 mph 4.0 mph 77 % 0.00 in
18:55 48.4 °F 41.5 °F 30.03 in NNW 1.0 mph 4.0 mph 77 % 0.00 in
19:00 48.4 °F 41.9 °F 30.03 in NW 1.0 mph 4.0 mph 78 % 0.00 in
19:05 48.2 °F 41.7 °F 30.03 in Calm   4.0 mph 78 % 0.00 in
19:10 48.0 °F 41.9 °F 30.03 in NNW 3.0 mph 4.0 mph 79 % 0.00 in
19:16 48.0 °F 41.9 °F 30.03 in NW 1.0 mph 3.0 mph 79 % 0.00 in
19:20 48.0 °F 41.9 °F 30.03 in Calm   3.0 mph 79 % 0.00 in
19:26 48.0 °F 42.1 °F 30.03 in NNW 1.0 mph 3.0 mph 80 % 0.00 in
19:31 47.8 °F 41.9 °F 30.03 in Calm   2.0 mph 80 % 0.00 in
19:36 47.8 °F 41.9 °F 30.02 in Calm   2.0 mph 80 % 0.00 in
19:41 47.8 °F 41.9 °F 30.02 in Calm   2.0 mph 80 % 0.00 in
19:46 47.7 °F 42.1 °F 30.02 in NW 1.0 mph 1.0 mph 81 % 0.00 in
19:51 47.5 °F 41.9 °F 30.02 in Calm   1.0 mph 81 % 0.00 in
19:56 47.3 °F 41.7 °F 30.02 in Calm   1.0 mph 81 % 0.00 in
20:01 47.1 °F 41.9 °F 30.03 in Calm   1.0 mph 82 % 0.00 in
20:06 46.9 °F 41.7 °F 30.02 in Calm   1.0 mph 82 % 0.00 in
20:11 46.8 °F 41.9 °F 30.02 in Calm   1.0 mph 83 % 0.00 in
20:16 46.6 °F 41.7 °F 30.02 in Calm   1.0 mph 83 % 0.00 in
20:21 46.0 °F 41.2 °F 30.02 in Calm   1.0 mph 83 % 0.00 in
20:26 45.9 °F 41.4 °F 30.02 in Calm   1.0 mph 84 % 0.00 in
20:31 45.7 °F 41.4 °F 30.02 in Calm   1.0 mph 85 % 0.00 in
20:36 45.5 °F 41.2 °F 30.01 in Calm   1.0 mph 85 % 0.00 in
20:41 45.1 °F 40.8 °F 30.01 in Calm     85 % 0.00 in
20:46 44.8 °F 40.8 °F 30.02 in Calm     86 % 0.00 in
20:51 44.4 °F 40.5 °F 30.02 in Calm     86 % 0.00 in
20:56 44.2 °F 40.3 °F 30.01 in Calm     86 % 0.00 in
21:01 43.9 °F 40.3 °F 30.01 in Calm     87 % 0.00 in
21:06 43.5 °F 39.9 °F 30.01 in Calm     87 % 0.00 in
21:11 43.3 °F 39.7 °F 30.00 in Calm     87 % 0.00 in
21:16 43.2 °F 39.9 °F 30.00 in Calm     88 % 0.00 in
21:21 43.2 °F 40.1 °F 30.00 in Calm     89 % 0.00 in
21:26 43.3 °F 40.6 °F 30.00 in Calm     90 % 0.00 in
21:31 43.3 °F 40.6 °F 30.00 in Calm     90 % 0.00 in
21:36 43.2 °F 40.5 °F 30.01 in Calm     90 % 0.00 in
21:41 43.3 °F 40.8 °F 30.00 in Calm     91 % 0.00 in
21:46 43.3 °F 40.8 °F 29.99 in Calm     91 % 0.00 in
21:51 43.2 °F 40.6 °F 29.99 in Calm     91 % 0.00 in
21:56 43.0 °F 40.5 °F 29.99 in Calm     91 % 0.00 in
22:01 43.0 °F 40.8 °F 29.99 in Calm     92 % 0.00 in
22:06 42.8 °F 40.6 °F 29.99 in Calm     92 % 0.00 in
22:11 42.6 °F 40.5 °F 29.99 in Calm     92 % 0.00 in
22:16 42.8 °F 40.6 °F 29.99 in Calm     92 % 0.00 in
22:21 43.0 °F 40.8 °F 29.99 in Calm     92 % 0.00 in
22:26 43.0 °F 41.2 °F 29.99 in Calm   1.0 mph 93 % 0.00 in
22:31 43.0 °F 41.2 °F 29.99 in Calm   1.0 mph 93 % 0.00 in
22:36 43.2 °F 41.4 °F 29.99 in Calm   1.0 mph 93 % 0.00 in
22:42 43.3 °F 41.5 °F 29.99 in Calm   1.0 mph 93 % 0.00 in
22:47 43.5 °F 41.7 °F 29.99 in Calm   1.0 mph 93 % 0.00 in
22:52 43.7 °F 41.7 °F 29.99 in Calm   1.0 mph 93 % 0.00 in
22:57 43.9 °F 41.9 °F 29.99 in WNW 1.0 mph 1.0 mph 93 % 0.00 in
23:02 44.1 °F 42.1 °F 29.98 in Calm   1.0 mph 93 % 0.00 in
23:07 44.1 °F 41.9 °F 29.98 in Calm   1.0 mph 92 % 0.00 in
23:12 44.1 °F 41.9 °F 29.97 in SSE 1.0 mph 1.0 mph 92 % 0.00 in
23:17 44.1 °F 41.9 °F 29.97 in Calm   1.0 mph 92 % 0.00 in
23:22 44.1 °F 41.9 °F 29.96 in Calm   1.0 mph 92 % 0.00 in
23:27 44.1 °F 41.9 °F 29.96 in Calm   1.0 mph 92 % 0.00 in
23:32 44.1 °F 41.9 °F 29.96 in Calm   1.0 mph 92 % 0.00 in
23:37 43.9 °F 41.7 °F 29.96 in Calm     92 % 0.00 in
23:42 43.5 °F 41.4 °F 29.97 in Calm     92 % 0.00 in
23:47 43.3 °F 41.2 °F 29.97 in Calm     92 % 0.00 in
23:52 43.2 °F 41.0 °F 29.96 in Calm     92 % 0.00 in
23:57 43.0 °F 40.8 °F 29.97 in Calm     92 % 0.00 in
Spring, Texas: Villages of Bridgestone
Compliments of Weather Underground - 2.75 mb

Script developed by  Jim McMurry - jmcmurry@mwt.net Adapted for the template by  Wim van der Kuil - Leuven-Template.eu

You find our weather info also at:

UK Metoffice

WeatherCloud

Weather Underground

Mid-South Weather Network

AWEKAS

Citizen Weather Observer Program (CWOP)

HAMweather, WeatherForYou, PWS Weather

Equipment we use:

Weather-station
Davis Vantage Vue

Weather-program
Meteohub

Weather-server
Debian 7.9 x86 (Guest)

Provider
DreamHost

Davis Vantage Vue

Meteohub

Debian 7.9 x86 (Guest)

DreamHost